Location: Newark
(34.9471°N, 136.1778°E)
Time: 19:42:52
(UTC+00:00)

METEOR M2 - Pass Details

Date: 22 February 2020
Orbit: 818 x 828 km, 98.5° (Epoch: 09 April)

Event Time Altitude Azimuth Distance (km) Brightness Sun altitude
Exits shadow 11:32:56 23° 227° (SW) 1,681 ? -35.2°
Maximum altitude 11:34:57 30° 263° (W) 1,456 ? -35.6°
Drops below altitude 10° 11:39:38 10° 324° (NW) 2,435 ? -36.5°
Sets 11:42:17 0° 335° (NNW) 3,373 ? -37.1°
